Temperature
15 15 15 14 14 14 14 14 13 13 13 13 12 12 12 12 12 12 12 12 12 12 12 12 13 13 13 13 13 12 12 13 13 13 13 12 12 12 12 13 13 13 13
17 15 15 15 14 14 14 13 13 13 13 12 12 11 11 11 11 11 11 11 11 12 12 12 12 13 13 13 12 12 12 12 13 13 13 13 12 11 11 12 12 12 12
16 16 15 15 14 14 14 13 13 13 13 12 12 11 11 11 11 11 11 11 11 11 12 12 12 12 13 12 12 12 11 12 12 12 12 12 11 10 10 11 11 11 11
17 16 15 15 14 14 14 13 13 13 12 12 12 11 11 11 11 11 11 11 11 12 12 12 12 12 12 12 12 12 12 12 12 12 12 11 11 10 10 10 10 10 10
17 16 15 15 14 14 14 13 13 13 12 12 12 12 11 11 11 11 11 11 11 12 12 12 12 12 12 12 12 12 11 12 12 11 11 11 10 9 9 9 10 10 10
17 16 15 15 14 14 14 13 13 13 12 12 11 11 11 11 11 11 11 11 11 11 11 12 12 12 12 12 12 11 11 11 11 11 11 10 10 9 9 9 9 9 9
17 16 16 15 14 14 14 13 13 13 12 12 11 11 11 11 11 11 11 11 11 11 11 11 11 11 11 11 11 11 11 11 11 11 10 10 10 9 9 9 9 9 9
18 17 16 15 15 14 14 13 13 13 12 12 11 11 11 11 11 11 11 11 11 11 11 11 11 11 11 11 11 10 10 10 10 10 10 10 9 9 8 8 9 9 9
17 17 16 15 15 14 14 13 13 13 12 12 12 11 11 11 11 11 11 11 11 11 11 11 10 10 10 10 10 10 9 9 9 9 9 9 9 8 8 8 8 8 8
17 17 16 16 15 14 14 13 13 13 12 12 12 11 11 11 11 11 11 11 11 11 10 10 10 10 10 10 9 9 9 9 9 9 9 8 8 8 8 8 8 8 8
16 16 16 16 15 14 14 13 13 12 12 12 12 11 11 11 11 11 11 10 10 10 10 10 10 9 9 9 9 9 9 9 8 8 8 8 8 8 8 8 8 8 8
17 16 16 16 15 15 14 13 13 12 12 12 12 11 11 11 11 10 10 10 10 10 10 9 9 9 9 9 9 9 8 8 8 8 8 8 8 8 8 7 7 7 7
18 17 16 16 15 15 14 13 13 12 12 12 11 11 11 11 10 10 10 10 10 9 9 9 9 9 9 9 9 8 8 8 8 8 8 8 8 8 7 7 7 7 7
18 17 17 16 15 15 14 14 13 12 12 12 11 11 11 11 10 10 10 10 9 9 9 9 9 9 9 9 9 8 8 8 8 8 8 8 8 8 7 7 7 7 6
18 17 17 16 16 15 14 14 13 13 12 12 12 11 11 11 10 10 10 10 10 9 9 9 9 9 9 9 9 9 9 9 8 8 8 8 8 8 7 7 7 6 6
18 18 17 16 16 15 15 14 14 13 12 12 12 11 11 11 10 10 10 10 10 9 9 9 9 9 9 9 9 9 9 9 9 8 8 8 8 8 7 7 7 6 6
18 18 17 17 16 15 15 14 13 13 12 12 12 11 11 11 10 10 10 10 10 9 9 9 9 9 9 9 9 9 9 9 9 8 8 8 8 7 7 7 7 6 6
18 18 17 16 16 15 15 14 13 13 12 12 11 11 11 10 10 10 10 10 10 9 9 9 9 9 9 9 9 9 9 9 9 8 8 8 7 7 7 7 6 6 6
19 18 17 16 16 15 15 14 13 13 12 12 11 11 11 10 10 10 10 10 10 10 9 9 10 9 9 9 9 9 9 9 9 8 8 7 7 7 6 6 6 6 6
19 18 17 17 16 15 14 13 12 12 12 11 11 11 11 10 10 10 10 10 10 10 10 10 10 10 9 9 9 9 9 9 8 8 7 7 7 6 6 6 6 6 5
19 18 18 17 16 15 14 13 12 12 12 11 11 11 11 10 10 10 10 10 10 10 10 10 10 9 9 9 9 9 9 8 8 7 7 7 6 6 6 5 5 5 5
19 19 18 17 16 15 15 14 13 13 12 11 11 11 10 10 10 10 10 10 10 10 10 10 10 9 9 9 9 9 8 8 7 7 7 6 6 6 5 5 5 5 5
19 19 18 18 17 16 15 14 13 12 11 11 11 11 10 10 10 10 10 10 10 10 10 10 10 9 9 9 9 8 8 8 7 7 7 6 6 6 5 5 5 5 5
19 19 18 18 17 16 15 14 13 12 12 11 11 11 11 10 10 10 10 10 10 10 10 10 9 9 9 9 8 8 8 7 7 6 6 6 6 5 5 5 5 5 4
19 19 18 18 17 16 15 14 13 13 12 12 11 11 10 10 10 10 10 10 10 10 10 9 9 9 9 9 8 8 7 7 6 5 6 6 6 6 5 5 5 4 4
19 18 18 17 16 16 15 14 13 13 12 12 11 11 10 10 10 10 10 10 10 10 9 9 9 9 9 8 8 7 7 6 6 5 5 5 5 6 5 5 4 4 3
Wind_Speed
8 15 21 20 19 19 18 17 17 16 15 15 14 14 15 15 15 15 15 15 15 15 16 16 16 16 15 15 15 15 16 17 18 18 17 17 16 16 16 16 15 15 17
12 19 22 21 20 19 19 18 17 16 15 15 14 14 14 14 14 14 14 14 14 15 15 15 16 15 15 14 14 14 15 15 16 16 16 15 15 15 15 15 14 13 15
16 20 22 22 21 20 19 19 18 17 15 15 14 14 14 14 14 14 14 14 14 14 15 15 15 14 14 14 13 14 14 15 15 15 14 15 13 14 14 14 14 13 13
19 20 21 22 21 21 20 19 18 17 16 15 15 14 14 13 13 13 13 13 13 14 14 14 13 13 13 13 12 12 13 13 14 13 13 13 12 12 13 12 12 12 12
17 20 22 23 22 21 20 20 19 17 16 15 15 14 13 13 13 13 13 12 12 12 12 12 12 12 12 11 11 11 12 12 12 12 12 12 12 11 11 11 11 10 10
14 19 23 24 22 22 21 20 19 18 17 16 15 14 13 13 12 12 12 11 11 11 11 11 10 10 10 10 10 10 10 10 10 10 10 10 10 10 10 10 9 9 9
14 19 22 24 23 22 22 21 19 18 17 16 15 14 13 13 12 11 11 10 10 9 9 9 9 9 9 8 8 9 9 9 9 7 7 7 8 9 9 9 9 8 8
17 18 21 24 23 23 22 21 20 19 18 17 16 14 13 13 12 11 10 9 8 8 7 7 7 7 7 7 7 7 8 7 6 4 3 4 7 8 8 8 8 8 8
16 16 17 20 22 22 22 21 20 19 18 17 16 14 14 13 11 10 9 8 7 6 6 5 5 5 5 5 6 6 7 7 4 1 0 2 6 8 8 8 9 9 9
12 12 13 16 18 19 20 21 20 19 18 17 16 15 14 12 11 10 9 8 7 6 4 3 3 2 3 4 5 5 6 6 4 1 1 3 5 8 8 9 9 9 9
13 11 11 13 15 17 18 20 20 19 18 17 16 15 14 12 11 9 9 8 6 5 3 2 1 1 2 4 5 5 5 4 3 1 2 3 5 7 9 9 9 9 9
17 15 13 12 14 16 17 17 17 17 17 16 15 15 14 12 11 10 9 8 7 5 3 2 2 2 3 4 5 5 4 4 2 1 2 3 4 7 8 9 9 9 9
19 18 16 14 15 15 12 14 14 14 14 15 16 16 14 12 10 10 8 7 6 5 4 4 4 4 4 3 3 3 4 3 2 2 2 3 4 6 8 8 8 9 9
17 18 16 15 14 15 14 13 13 12 12 13 15 16 13 9 8 8 8 8 7 6 5 4 3 3 2 2 1 2 4 4 2 2 2 2 3 5 7 8 8 8 9
18 18 18 17 16 14 12 11 13 12 13 15 15 16 15 10 7 8 7 7 7 6 5 3 2 1 1 2 3 4 4 5 4 2 2 2 2 4 6 7 8 9 9
18 19 18 19 17 15 12 10 11 14 15 15 15 16 17 14 10 8 6 6 6 6 6 4 2 1 1 2 3 4 4 5 4 2 1 2 3 4 5 7 7 8 9
19 19 19 20 18 17 15 13 13 15 16 14 15 17 17 15 13 10 6 5 6 7 6 4 2 2 2 2 3 4 4 5 4 2 1 2 3 4 4 5 6 8 9
17 18 19 18 18 18 15 13 12 14 15 14 16 16 17 16 15 11 6 5 7 7 5 3 2 2 2 2 2 3 4 4 3 1 2 3 4 4 4 4 6 7 9
19 19 20 19 20 19 16 12 11 12 12 14 15 15 16 16 15 12 7 7 8 6 4 2 2 2 1 1 2 3 3 3 2 2 3 4 3 3 4 4 5 7 9
18 19 20 19 19 17 13 10 8 9 9 11 13 14 16 15 15 13 8 8 9 5 3 3 3 2 1 1 2 3 4 3 2 2 2 3 4 5 5 5 6 6 9
15 17 19 19 18 16 13 13 12 11 10 8 9 14 16 16 15 13 8 7 7 5 5 5 3 3 2 2 3 4 4 4 4 3 3 3 4 5 6 6 6 6 7
18 19 20 20 19 19 15 13 10 9 7 7 7 11 15 16 16 13 9 7 6 5 5 4 4 3 1 2 2 2 3 4 4 4 3 2 3 4 6 6 7 8 8
17 20 20 21 19 18 14 10 8 6 4 5 7 8 10 15 15 14 12 9 7 6 6 5 5 5 3 1 2 3 3 2 3 4 3 2 2 2 3 6 8 10 9
18 17 18 19 18 17 16 16 17 12 9 9 8 7 8 13 14 15 13 11 8 6 7 6 5 4 5 3 1 1 2 3 2 3 4 3 3 3 3 5 8 10 10
14 15 15 16 16 16 17 18 18 11 8 6 7 9 9 8 11 13 13 11 8 6 7 7 6 5 4 4 3 2 1 1 2 2 4 5 4 4 4 5 6 7 8
10 11 13 15 15 16 17 17 18 15 12 12 11 11 9 6 6 9 12 11 9 7 7 7 6 7 5 4 4 3 3 3 3 3 4 4 5 5 4 4 4 4 6
Wind_Direction
166 167 157 152 146 141 137 131 125 120 117 112 107 102 98 95 92 89 87 86 84 81 78 77 74 72 73 73 72 71 69 67 64 61 59 60 59 58 57 56 52 46 49
156 162 157 154 148 144 139 133 128 124 121 117 112 108 103 99 95 92 90 88 85 82 80 78 75 73 73 74 75 72 68 70 69 66 57 49 55 59 57 54 52 50 48
150 158 156 154 150 147 142 136 132 129 126 122 117 112 108 104 101 97 94 90 88 85 82 79 77 76 75 75 75 70 66 70 72 67 53 35 37 57 56 55 53 50 48
151 154 155 155 151 147 143 140 136 133 131 127 123 118 113 109 105 102 98 95 92 88 85 82 79 76 75 75 74 68 66 71 72 65 49 35 26 52 53 51 50 48 46
150 153 157 156 153 150 147 143 141 139 136 132 128 123 118 114 110 106 103 99 95 91 87 83 80 76 74 73 71 67 68 71 70 65 51 35 20 45 50 47 46 45 43
149 154 160 158 156 154 151 149 147 144 140 137 133 129 125 121 116 111 108 104 99 94 89 84 79 75 71 70 68 65 65 65 68 65 56 37 17 35 42 40 37 36 36
152 157 162 161 159 157 155 154 152 149 146 143 138 135 132 127 123 118 114 109 104 98 92 87 80 74 69 66 64 60 59 63 68 69 59 38 19 27 29 26 23 20 21
156 159 163 164 162 161 159 158 156 154 151 148 145 142 138 135 133 129 125 120 114 108 101 93 85 77 69 62 57 52 50 47 61 73 60 30 21 18 16 13 8 3 3
156 158 163 166 165 164 162 161 160 159 156 154 152 149 146 144 141 138 136 132 126 118 110 99 86 72 58 46 39 35 30 30 46 54 127 359 8 6 5 1 357 355 356
156 160 160 162 164 164 164 165 164 164 162 161 158 155 153 152 150 149 148 147 143 136 125 112 92 58 29 12 7 6 8 18 23 16 239 312 354 358 357 354 351 350 348
166 168 164 162 163 163 164 168 167 168 168 166 163 161 160 159 159 159 165 166 163 160 156 152 110 5 348 338 333 336 350 359 360 243 243 297 349 353 355 352 349 346 346
177 178 174 169 166 165 169 170 170 169 170 168 167 166 167 170 172 176 185 184 182 185 200 229 273 307 319 321 320 326 330 335 338 241 259 296 343 351 355 356 356 354 354
179 179 179 176 172 171 171 169 170 169 169 170 172 173 173 176 183 189 193 198 201 207 229 264 290 304 306 298 308 325 327 334 321 275 287 303 338 351 356 360 1 2 3
178 184 181 178 176 176 173 173 172 171 173 176 180 180 177 177 183 186 192 201 204 209 224 248 278 297 308 312 321 348 354 354 339 309 309 323 350 1 1 4 8 9 6
183 185 182 180 179 178 174 176 178 178 180 183 186 188 183 179 183 187 196 201 205 205 205 211 231 297 358 6 16 19 6 2 2 352 338 355 24 18 8 11 11 8 5
188 187 183 183 182 178 180 181 181 183 184 185 188 189 187 184 183 183 187 191 197 197 195 185 174 112 40 23 16 14 9 7 9 13 46 56 54 41 26 20 15 10 7
191 186 184 185 182 182 183 182 182 184 184 185 189 190 188 187 185 181 178 183 190 185 171 151 120 85 53 33 15 5 3 358 2 25 86 95 82 64 45 31 18 10 4
190 186 186 185 184 185 183 181 180 182 182 185 187 187 188 188 185 176 171 178 178 163 149 134 111 87 52 32 351 335 342 345 351 20 90 112 102 74 46 32 18 7 2
193 188 185 184 184 185 182 179 176 177 180 183 184 185 186 185 182 173 170 172 163 144 136 130 101 110 80 356 324 335 344 344 345 35 82 97 95 72 49 28 17 9 0
194 189 187 184 183 180 177 171 170 174 179 180 182 185 184 181 177 169 165 163 155 138 136 130 116 90 86 2 347 354 351 347 23 53 68 71 72 66 56 39 25 11 1
190 187 186 184 181 177 179 179 181 186 183 182 184 184 181 177 173 167 160 157 155 155 159 149 129 106 59 33 38 2 352 8 38 33 36 54 55 55 47 31 19 5 355
190 188 186 186 183 182 185 184 182 174 176 179 179 181 180 176 174 171 163 162 159 152 151 148 137 126 91 65 104 72 8 351 352 4 9 33 30 31 21 6 358 346 336
191 189 188 188 185 184 175 165 151 139 136 167 182 183 180 176 173 172 170 163 161 159 163 164 153 145 147 80 102 137 137 231 301 323 342 358 355 1 352 342 339 332 331
195 190 187 185 183 181 173 173 173 178 183 187 179 176 173 174 172 172 169 165 164 161 161 164 157 149 144 155 121 104 154 160 173 304 314 316 326 324 315 319 320 321 326
190 185 184 181 181 179 179 179 180 182 177 159 160 165 170 173 172 171 168 165 163 162 162 159 154 152 152 160 167 161 136 110 157 186 276 306 315 292 287 293 299 310 325
181 179 178 179 182 180 181 181 183 179 168 164 169 174 175 172 172 173 168 167 166 164 165 165 163 161 162 160 166 167 168 175 191 187 233 274 293 291 290 282 283 295 323
Height
1528 1531 1534 1536 1538 1539 1541 1542 1542 1543 1543 1544 1544 1544 1544 1545 1545 1545 1545 1545 1545 1545 1544 1544 1543 1543 1542 1542 1542 1542 1542 1542 1542 1541 1541 1541 1540 1539 1539 1539 1539 1538 1538
1527 1530 1533 1536 1538 1539 1540 1541 1542 1543 1543 1544 1544 1544 1545 1545 1545 1545 1546 1546 1545 1545 1545 1544 1544 1543 1543 1543 1543 1543 1543 1543 1542 1542 1542 1541 1541 1540 1539 1539 1538 1538 1538
1527 1529 1532 1535 1537 1539 1540 1541 1542 1543 1543 1544 1544 1545 1545 1545 1546 1546 1546 1546 1546 1546 1545 1545 1545 1544 1544 1544 1544 1544 1544 1543 1543 1543 1543 1542 1542 1541 1540 1539 1539 1538 1538
1526 1529 1532 1535 1537 1539 1540 1541 1542 1543 1544 1544 1545 1545 1545 1546 1546 1546 1546 1547 1547 1546 1546 1546 1546 1545 1545 1545 1545 1545 1545 1544 1544 1544 1544 1543 1542 1542 1541 1541 1540 1539 1538
1526 1529 1532 1534 1537 1538 1540 1541 1542 1543 1544 1544 1545 1545 1546 1546 1547 1547 1547 1547 1547 1547 1547 1547 1547 1547 1546 1546 1546 1546 1546 1545 1545 1545 1544 1544 1543 1543 1542 1541 1541 1540 1539
1526 1528 1531 1534 1536 1538 1539 1541 1542 1543 1544 1544 1545 1546 1546 1547 1547 1547 1547 1547 1548 1548 1548 1548 1548 1548 1547 1547 1547 1547 1547 1546 1546 1545 1545 1545 1544 1544 1543 1542 1542 1541 1540
1525 1528 1531 1533 1535 1537 1539 1540 1541 1543 1544 1545 1545 1546 1547 1547 1547 1547 1548 1548 1548 1548 1548 1548 1548 1548 1548 1548 1548 1548 1547 1547 1546 1546 1545 1545 1544 1544 1544 1543 1542 1542 1541
1524 1527 1530 1533 1535 1537 1538 1540 1541 1542 1543 1544 1545 1546 1547 1547 1547 1548 1548 1548 1549 1549 1549 1549 1549 1549 1549 1549 1548 1548 1548 1547 1546 1546 1546 1545 1545 1544 1544 1543 1542 1542 1541
1525 1527 1529 1531 1534 1536 1538 1539 1541 1542 1543 1544 1545 1546 1547 1547 1548 1548 1549 1549 1549 1549 1550 1550 1550 1550 1549 1549 1549 1548 1548 1547 1547 1546 1545 1545 1544 1544 1543 1542 1542 1541 1540
1524 1526 1528 1530 1532 1534 1536 1538 1540 1541 1543 1544 1545 1546 1547 1547 1548 1549 1549 1549 1550 1550 1550 1550 1550 1550 1550 1549 1549 1549 1548 1547 1546 1546 1545 1545 1544 1543 1542 1541 1541 1540 1539
1523 1525 1527 1529 1531 1533 1535 1537 1539 1541 1542 1543 1544 1545 1546 1547 1548 1549 1549 1550 1550 1550 1550 1550 1550 1550 1550 1550 1549 1549 1548 1547 1546 1545 1545 1544 1543 1542 1541 1540 1539 1539 1538
1519 1521 1524 1527 1529 1531 1533 1535 1537 1539 1541 1542 1544 1545 1546 1547 1548 1549 1549 1550 1550 1550 1550 1550 1550 1550 1550 1549 1549 1548 1547 1546 1546 1545 1544 1543 1542 1541 1541 1539 1538 1538 1537
1515 1518 1521 1524 1527 1529 1531 1533 1535 1537 1539 1541 1543 1544 1545 1546 1547 1548 1549 1549 1550 1550 1550 1550 1550 1550 1549 1549 1548 1547 1547 1546 1545 1544 1543 1542 1541 1540 1540 1539 1537 1536 1535
1513 1515 1518 1521 1524 1526 1529 1531 1533 1535 1537 1539 1541 1543 1544 1545 1546 1547 1548 1549 1549 1550 1550 1550 1549 1549 1549 1548 1547 1546 1546 1545 1544 1543 1542 1541 1540 1539 1538 1537 1536 1535 1534
1509 1512 1515 1518 1521 1523 1526 1528 1530 1533 1535 1537 1539 1541 1542 1544 1545 1546 1547 1548 1548 1549 1549 1549 1549 1548 1548 1547 1546 1545 1544 1543 1542 1541 1541 1540 1539 1538 1537 1536 1535 1534 1533
1505 1508 1511 1514 1517 1520 1522 1525 1527 1530 1533 1535 1537 1539 1541 1542 1544 1545 1546 1547 1547 1548 1548 1548 1548 1547 1547 1546 1545 1544 1543 1542 1541 1540 1539 1538 1537 1536 1535 1534 1533 1532 1531
1500 1504 1506 1510 1513 1516 1519 1522 1524 1527 1530 1532 1535 1537 1539 1540 1542 1543 1545 1545 1546 1547 1547 1547 1546 1546 1545 1544 1544 1543 1542 1541 1539 1538 1537 1537 1536 1535 1534 1533 1532 1530 1529
1496 1499 1502 1505 1508 1511 1514 1518 1521 1524 1527 1529 1532 1534 1536 1538 1540 1541 1543 1544 1544 1545 1545 1545 1545 1544 1544 1543 1542 1541 1540 1539 1538 1537 1536 1535 1535 1534 1533 1531 1530 1529 1527
1491 1494 1497 1500 1503 1507 1510 1514 1517 1521 1524 1527 1529 1531 1534 1536 1538 1539 1541 1542 1543 1543 1543 1544 1543 1543 1542 1541 1540 1539 1538 1537 1536 1536 1535 1534 1533 1532 1531 1530 1528 1527 1525
1486 1488 1491 1495 1498 1502 1506 1510 1514 1517 1520 1523 1526 1528 1531 1533 1535 1537 1538 1539 1540 1541 1541 1541 1541 1541 1540 1540 1539 1537 1536 1535 1535 1534 1534 1533 1532 1531 1530 1528 1527 1525 1523
1480 1482 1485 1489 1493 1497 1500 1504 1507 1511 1515 1518 1522 1525 1528 1530 1532 1534 1535 1537 1538 1538 1539 1539 1539 1539 1538 1538 1537 1536 1535 1534 1533 1533 1532 1532 1531 1530 1528 1526 1524 1522 1520
1472 1475 1479 1483 1486 1490 1494 1497 1502 1506 1510 1514 1518 1521 1524 1526 1529 1531 1532 1534 1535 1536 1536 1537 1537 1536 1536 1535 1535 1534 1533 1533 1532 1531 1531 1530 1529 1528 1526 1524 1522 1520 1517
1465 1468 1472 1476 1480 1484 1489 1494 1499 1504 1507 1511 1513 1516 1519 1522 1525 1527 1529 1531 1532 1533 1534 1534 1534 1534 1534 1533 1533 1533 1531 1530 1530 1529 1528 1527 1526 1525 1524 1522 1519 1517 1514
1458 1462 1466 1470 1474 1479 1483 1487 1491 1494 1498 1501 1506 1511 1515 1518 1521 1523 1526 1527 1529 1530 1531 1531 1531 1531 1531 1531 1530 1530 1530 1529 1528 1526 1526 1525 1523 1522 1520 1518 1516 1513 1511
1452 1456 1460 1465 1469 1473 1477 1481 1485 1489 1494 1499 1503 1508 1511 1514 1517 1520 1522 1524 1525 1526 1527 1528 1528 1529 1528 1528 1528 1527 1526 1526 1525 1524 1522 1521 1520 1518 1516 1514 1512 1510 1507
1447 1451 1455 1459 1463 1468 1472 1476 1480 1484 1489 1493 1498 1502 1506 1510 1513 1515 1518 1520 1521 1523 1524 1525 1525 1525 1525 1525 1524 1524 1523 1522 1521 1520 1518 1516 1514 1513 1512 1510 1508 1506 1503